Location: Adaghas
(31.2259°N, 9.0496°W)
Time: 02:42:43
(UTC+00:00)

CZ-2C R/B - Pass Details

Date: 18 September 2020
Orbit: 391 x 588 km, 35.0° (Epoch: 23 October)

Event Time Altitude Azimuth Distance (km) Brightness Sun altitude
Rises 20:34:08 0° 281° (W) 2,430 6.0 -25.3°
Reaches altitude 10° 20:36:25 10° 288° (WNW) 1,527 4.6 -25.8°
Enters shadow 20:38:21 27° 308° (NW) 845 2.8 -26.2°
